McAllen, TX

9:50 AM CDT on September 25, 2017 (GMT -0500)
McAllen Miller International

Weather History for KMFE - May, 2013

Change the Weather History Date:

Monday, May 27, 2013

  Actual Average Record
Temperature  
Mean Temperature 85 °F 84 °F  
Max Temperature 94 °F 94 °F 107 °F (1973)
Min Temperature 76 °F 74 °F 58 °F (1967)
Degree Days  
Heating Degree Days 0 0  
Month to date heating degree days 0 0  
Since 1 July heating degree days 318 579  
Cooling Degree Days 20 19  
Month to date cooling degree days 418 447  
Year to date cooling degree days 1208 1178  
Growing Degree Days 34 (Base 50)    
Moisture  
Dew Point 73 °F    
Average Humidity 71    
Maximum Humidity 100    
Minimum Humidity 41    
Precipitation  
Precipitation 0.00 in 0.07 in 1.00 in (1992)
Month to date precipitation 1.10 1.93  
Year to date precipitation 3.42 6.46  
Sea Level Pressure  
Sea Level Pressure 29.92 in    
Wind  
Wind Speed 17 mph (SE)    
Max Wind Speed 26 mph    
Max Gust Speed 36 mph    
Visibility 10 miles    
Events      
T = Trace of Precipitation, MM = Missing Value Source: NWS Daily Summary

Daily Weather History Graph

Daily Weather History Graph

Search for Another Location

Airport or City:

Trip Planner

Search our weather history database for the weather conditions in past years. The results will help you decide how hot, cold, wet, or windy it might be!

Date:

Astronomy

May. 27, 2013 Rise Set
Actual Time 6:41 AM CDT 8:18 PM CDT
Civil Twilight 6:16 AM CDT 8:44 PM CDT
Nautical Twilight 5:45 AM CDT 9:15 PM CDT
Astronomical Twilight 5:13 AM CDT 9:47 PM CDT
Moon 11:05 PM CDT (5/27) 9:16 AM CDT (5/27)
Length of Visible Light 14h 28m
Length of Day
13h 37m
Waning Gibbous, 91% of the Moon is Illuminated
May 27
Waning Gibbous
May 31
Last Quarter
Jun 8
New
Jun 16
First Quarter
Jun 23
Full

Hourly Weather History & Observations

Time (CDT) Temp. Heat Index Dew Point Humidity Pressure Visibility Wind Dir Wind Speed Gust Speed Precip Events Conditions
12:10 AM 77.0 °F - 73.4 °F 89% 30.01 in 10.0 mi SE 9.2 mph - N/A   Mostly Cloudy
12:53 AM 77.0 °F - 73.0 °F 88% 30.00 in 10.0 mi SE 9.2 mph - N/A   Scattered Clouds
1:53 AM 75.9 °F - 73.9 °F 94% 29.97 in 10.0 mi SE 8.1 mph - N/A   Partly Cloudy
2:25 AM 75.2 °F - 73.4 °F 94% 29.98 in 10.0 mi ESE 6.9 mph - N/A   Mostly Cloudy
2:53 AM 77.0 °F - 73.9 °F 90% 29.96 in 10.0 mi ESE 6.9 mph - N/A   Overcast
3:17 AM 75.2 °F - 73.4 °F 94% 29.95 in 10.0 mi ESE 6.9 mph - N/A   Overcast
3:53 AM 75.9 °F - 73.9 °F 94% 29.94 in 10.0 mi ESE 9.2 mph - N/A   Overcast
4:17 AM 77.0 °F - 73.4 °F 89% 29.95 in 10.0 mi ESE 8.1 mph - N/A   Overcast
4:53 AM 77.0 °F - 73.9 °F 90% 29.94 in 10.0 mi ESE 9.2 mph - N/A   Overcast
5:43 AM 75.2 °F - 73.4 °F 94% 29.93 in 10.0 mi ESE 9.2 mph - N/A   Overcast
5:51 AM 75.2 °F - 75.2 °F 100% 29.93 in 10.0 mi ESE 9.2 mph - N/A   Overcast
5:53 AM 75.9 °F - 75.0 °F 97% 29.92 in 10.0 mi ESE 9.2 mph - N/A   Overcast
6:23 AM 75.2 °F - 75.2 °F 100% 29.93 in 4.0 mi ESE 9.2 mph - N/A   Overcast
6:39 AM 75.2 °F - 75.2 °F 100% 29.93 in 9.0 mi SE 9.2 mph - N/A   Overcast
6:48 AM 75.2 °F - 75.2 °F 100% 29.93 in 9.0 mi ESE 9.2 mph - N/A   Overcast
6:53 AM 75.9 °F - 75.0 °F 97% 29.93 in 9.0 mi ESE 8.1 mph - N/A   Overcast
7:19 AM 77.0 °F - 75.2 °F 94% 29.94 in 9.0 mi ESE 9.2 mph - N/A   Overcast
7:28 AM 77.0 °F - 75.2 °F 94% 29.94 in 10.0 mi ESE 10.4 mph - N/A   Mostly Cloudy
7:53 AM 78.1 °F - 75.0 °F 90% 29.94 in 10.0 mi SE 10.4 mph - N/A   Overcast
8:32 AM 78.8 °F - 75.2 °F 89% 29.96 in 10.0 mi SSE 12.7 mph 20.7 mph N/A   Scattered Clouds
8:53 AM 81.0 °F 86.2 °F 73.9 °F 79% 29.96 in 10.0 mi SSE 15.0 mph - N/A   Mostly Cloudy
9:20 AM 80.6 °F 85.4 °F 73.4 °F 79% 29.97 in 10.0 mi SSE 18.4 mph 24.2 mph N/A   Scattered Clouds
9:53 AM 82.9 °F 88.8 °F 73.0 °F 72% 29.96 in 10.0 mi SSE 17.3 mph 24.2 mph N/A   Scattered Clouds
10:53 AM 88.0 °F 94.7 °F 72.0 °F 59% 29.95 in 10.0 mi SSE 15.0 mph - N/A   Clear
11:53 AM 90.0 °F 96.9 °F 72.0 °F 55% 29.94 in 10.0 mi SE 19.6 mph 24.2 mph N/A   Mostly Cloudy
12:53 PM 91.0 °F 97.6 °F 71.1 °F 52% 29.94 in 10.0 mi SE 24.2 mph 31.1 mph N/A   Partly Cloudy
1:53 PM 91.0 °F 99.3 °F 73.0 °F 55% 29.91 in 10.0 mi SSE 23.0 mph 32.2 mph N/A   Mostly Cloudy
2:53 PM 93.0 °F 100.1 °F 71.1 °F 49% 29.89 in 10.0 mi SE 25.3 mph 34.5 mph N/A   Scattered Clouds
3:53 PM 93.0 °F 97.9 °F 69.1 °F 45% 29.86 in 10.0 mi SE 23.0 mph 29.9 mph N/A   Clear
4:53 PM 91.9 °F 94.5 °F 66.0 °F 42% 29.84 in 10.0 mi SSE 19.6 mph 28.8 mph N/A   Clear
5:53 PM 91.0 °F 93.0 °F 64.9 °F 42% 29.83 in 10.0 mi SE 23.0 mph 28.8 mph N/A   Clear
6:53 PM 88.0 °F 89.3 °F 64.0 °F 45% 29.83 in 10.0 mi SE 23.0 mph 28.8 mph N/A   Clear
7:53 PM 84.9 °F 87.1 °F 66.0 °F 53% 29.83 in 10.0 mi SE 19.6 mph 25.3 mph N/A   Clear
8:53 PM 82.0 °F 85.5 °F 69.1 °F 65% 29.85 in 10.0 mi SE 16.1 mph - N/A   Clear
9:53 PM 80.1 °F 83.6 °F 71.1 °F 74% 29.87 in 10.0 mi SE 18.4 mph - N/A   Clear
10:53 PM 79.0 °F - 72.0 °F 79% 29.88 in 10.0 mi SE 17.3 mph - N/A   Scattered Clouds
11:01 PM 78.8 °F - 73.4 °F 83% 29.88 in 10.0 mi SE 16.1 mph - N/A   Mostly Cloudy
11:53 PM 78.1 °F - 73.0 °F 84% 29.89 in 10.0 mi SE 13.8 mph - N/A   Overcast